Location: Unspecified
(17.6330°N, 0.0000°E)
Time: 03:28:18
(UTC+00:00)

S-56A Canister/Altair - Pass Details

Date: 03 July 2019
Orbit: 632 x 2500 km, 38.9° (Epoch: 21 July)

Event Time Altitude Azimuth Distance (km) Brightness Sun altitude
Rises 15:45:35 0° 305° (NW) 5,519 12.7 38.1°
Reaches altitude 10° 15:50:55 10° 319° (NW) 4,163 12.2 36.9°
Maximum altitude 15:58:16 21° 3° (N) 2,840 10.8 35.2°
Drops below altitude 10° 16:03:54 10° 50° (NE) 3,100 10.4 33.9°
Sets 16:07:07 0° 67° (ENE) 3,780 10.7 33.2°
